Current weather by "City, St" or "zip code"  
 
Advertise Here

Current Conditions: Chenault Airpark, LA

Thunderstorm in Vicinity


84.0 F

Last Updated on Aug 4 2020, 4:50 pm CDT
Humidity: 66%
Wind Speed: W 9.2 mph
Barometer 29.94 in
Dewpoint: 71.6 F
Visibility: 10.00 mi
Precip: --
Heat Index: 89 F
Wind Chill: NA
Current conditions at:

Chenault Airpark, LA (KCWF)

Lat: 30.21667 Lon: 93.15

Local Radar Image active severe weather and emergency alerts image image weather storm and storm spotter reports image weather observation monitoring service image
Local
Radar
Active
Alerts
Storm Reports Obs
Monitoring

Sign-up For Email & Text Message Weather Alert Notification Services


Advertise Here

Observation History for Chenault Airpark, LA


Time Wind
(mph)
Vis
(mi)
Weather Precip (in) Temperature (F) Relative
Humidity
Wind
Chill
(F)
Heat
Index
(F)
Pressure
Air Dwpt altimeter
(in)
sea level
(mb)
Rmks
4:50 pm CDT W 9.2 10.00 Thunderstorm in Vicinity -- 84.0 71.6 66% NA 89 29.94 M
3:50 pm CDT N 5.8 10.00 Thunderstorm in Vicinity -- 93.0 71.6 50% NA 100 29.93 M
2:55 pm CDT SW 9.2 10.00 Mostly Cloudy -- 93.0 73.4 53% NA 102 29.97 M
1:55 pm CDT W 10.4 10.00 Mostly Cloudy -- 91.0 73.4 56% NA 100 29.98 M
12:47 pm CDT W 5.8 10.00 Clear -- 91.0 73.4 56% NA 100 30.00 M
11:55 am CDT N 0.0 10.00 Clear -- 90.0 69.8 52% NA 96 30.01 M
10:50 am CDT N 0.0 10.00 Clear -- 88.0 64.4 46% NA 90 30.02 M
9:55 am CDT N 0.0 10.00 Clear -- 84.0 66.2 55% NA 86 30.02 M
8:52 am CDT N 0.0 10.00 Clear -- 82.0 66.2 58% NA 84 30.01 M
7:45 am CDT N 0.0 10.00 Clear -- 79.0 75.2 89% NA NA 30.00 M
6:53 am CDT N 0.0 10.00 Clear -- 75.0 73.4 94% NA NA 30.00 M
5:35 am CDT W 4.6 10.00 Partly Cloudy -- 78.0 74.7 89% NA NA 29.98 M
4:55 am CDT NW 3.5 10.00 Partly Cloudy -- 77.0 74.3 90% NA NA 29.97 M
3:55 am CDT NW 4.6 10.00 Fair -- 78.0 74.7 90% NA NA 29.97 M
2:55 am CDT W 5.8 10.00 Partly Cloudy -- 82.0 76.1 83% NA 90 29.95 M
1:55 am CDT W 5.8 10.00 Overcast -- 82.0 76.3 82% NA 89 29.96 M
12:55 am CDT W 6.9 10.00 Mostly Cloudy -- 82.0 76.3 82% NA 89 29.96 M
11:55 pm CDT SW 4.6 10.00 Fair -- 82.0 76.3 84% NA 90 29.97 M
10:55 pm CDT SW 4.6 10.00 Fair -- 83.0 76.1 81% NA 92 29.98 M
9:50 pm CDT N 0.0 10.00 Clear -- 79.0 75.2 89% NA NA 29.96 M
8:50 pm CDT S 6.9 10.00 Clear -- 82.0 75.2 79% NA 89 29.94 M
7:50 pm CDT N 0.0 10.00 Clear -- 88.0 71.6 59% NA 95 29.93 M
6:50 pm CDT N 3.5 10.00 Clear -- 90.0 69.8 52% NA 96 29.92 M
5:50 pm CDT N 6.9 10.00 Clear -- 91.0 71.6 52% NA 98 29.93 M

Regional Weather Observation


Lake Charles Regional Airport, LA (KLCH)

Thunderstorm
78.0 F

Southland Field, LA (KUXL)

Thunderstorm Light Rain in Vicinity
77.0 F

De Ridder, Beauregard Parish Airport, LA (KDRI)

Partly Cloudy
92.0 F

Orange, Orange County Airport, TX (KORG)

Thunderstorm Heavy Rain
77.0 F

Oakdale, Allen Parish Airport, LA (KACP)

Partly Cloudy
93.0 F

Jasper, Jasper County-Bell Field Airport, TX (KJAS)

Fair
94.0 F